"TOA5","AWS1","CR1000","7964","CR1000.Std.14","CPU:AWS1_114.CR1","64363","TBL110"
"TIMESTAMP","RECORD","Wind_spd_WVc(1)","Wind_spd_WVc(2)","Air_Temp_Avg","Humidity_Avg","SW_upper_Wm2_Avg","Rain_Tot","Press_Avg","Issui_Tot","Depth_cm","SR50A_Raw","Quality","Ground_Temp_Avg(1)","Ground_Temp_Avg(2)","SW_lower_Wm2_Avg","Albedo_Avg","SWC_per(1)","SWC_per(2)","Period(1)","Period(2)"
"TS","RN","","","","","","","","","","","","","","","","","","",""
"","","WVc","WVc","Avg","Avg","Avg","Tot","Avg","Tot","Smp","Smp","Smp","Avg","Avg","Avg","Avg","Smp","Smp","Smp","Smp"
"2018-03-04 00:00:00",330253,1.184,147.7,3.305,53.21,0,0,866.8589,0,87,2.296,172,0.836,1.336,0.00379213,0,52.83,60.68,33.99,35.83
"2018-03-04 00:10:00",330254,0.915,148.6,3.104,53.88,0,0,866.8357,0,86.6,2.303,171,0.823,1.329,0,0,52.83,60.68,33.99,35.83
"2018-03-04 00:20:00",330255,0.931,147.6,2.994,54.73,0,0,866.9538,0,86.7,2.3,170,0.819,1.33,0.01896065,0,52.83,60.68,33.99,35.83
"2018-03-04 00:30:00",330256,0.876,138.5,3.104,54.29,0,0,867.0802,0,86.7,2.301,170,0.821,1.326,0,0,52.88,60.68,34,35.83
"2018-03-04 00:40:00",330257,0.757,144.7,2.642,56.03,0,0,866.8758,0,87,2.297,170,0.817,1.326,0,0,52.88,60.68,34,35.83
"2018-03-04 00:50:00",330258,0.805,145.1,3.445,52.69,0,0,866.9918,0,86.9,2.296,171,0.813,1.326,0.07205047,0,52.88,60.68,34,35.83
"2018-03-04 01:00:00",330259,0.814,141.5,3.741,52.16,0,0,866.9432,0,86.6,2.298,174,0.802,1.323,0,0,52.88,60.68,34,35.83
"2018-03-04 01:10:00",330260,0.648,146.7,3.852,52.88,0,0,867.0676,0,86.6,2.297,169,0.781,1.34,0,0,52.83,60.62,33.99,35.82
"2018-03-04 01:20:00",330261,0.584,144.8,3.454,54.79,0,0,866.8884,0,86.7,2.3,170,0.778,1.339,0,0,52.83,60.68,33.99,35.83
"2018-03-04 01:30:00",330262,0.756,149.3,3.703,54.06,0,0,866.8041,0,86.8,2.296,183,0.778,1.311,0.04550556,0,52.88,60.62,34,35.82
"2018-03-04 01:40:00",330263,0.734,137.3,3.993,53.58,0,0,866.7872,0,86.3,2.301,172,0.775,1.337,0.01516852,0,52.88,60.68,34,35.83
"2018-03-04 01:50:00",330264,0.445,123.4,3.999,54.01,0,0,867.0851,0,86.4,2.299,170,0.769,1.338,0.01896065,0,52.88,60.62,34,35.82
"2018-03-04 02:00:00",330265,0.198,19.66,3.995,54.35,0,0,867.3164,0,86.7,2.297,171,0.77,1.349,0,0,52.88,60.62,34,35.82
"2018-03-04 02:10:00",330266,0.43,135.9,3.999,57.12,0.003932969,0,867.3248,0,86.6,2.298,170,0.767,1.382,0.0379213,0,52.83,60.62,33.99,35.82
"2018-03-04 02:20:00",330267,0.425,146.5,3.803,59.55,0,0,867.2292,0,86.4,2.3,176,0.767,1.38,0,0,52.83,60.62,33.99,35.82
"2018-03-04 02:30:00",330268,0.566,156.3,3.875,61.62,0,0,867.2924,0,86.6,2.297,171,0.767,1.397,0,0,52.83,60.62,33.99,35.82
"2018-03-04 02:40:00",330269,0.487,151.2,3.851,62.24,0,0,867.3109,0,86.6,2.297,181,0.767,1.374,0.00379213,0,52.83,60.62,33.99,35.82
"2018-03-04 02:50:00",330270,0.492,152.2,3.856,62.69,0,0,867.2536,0,86.7,2.298,174,0.767,1.382,0.02654491,0,52.88,60.62,34,35.82
"2018-03-04 03:00:00",330271,0.399,106.4,3.93,62.99,0,0,867.2372,0,86.6,2.299,171,0.767,1.37,0.04929769,0,52.88,60.62,34,35.82
"2018-03-04 03:10:00",330272,0.89,168.1,4.013,62.47,0,0,867.1104,0,86.8,2.296,170,0.77,1.386,0.01137639,0,52.83,60.62,33.99,35.82
"2018-03-04 03:20:00",330273,0.717,160.2,4.122,61.57,0,0,867.3039,0,86.5,2.297,173,0.768,1.396,0,0,52.83,60.62,33.99,35.82
"2018-03-04 03:30:00",330274,1.331,160.5,4.132,61.24,0,0,867.1068,0,86.7,2.296,170,0.767,1.406,0,0,52.88,60.62,34,35.82
"2018-03-04 03:40:00",330275,1.147,161.3,4.11,61.13,0,0,867.0419,0,86.5,2.298,181,0.767,1.426,0,0,52.83,60.62,33.99,35.82
"2018-03-04 03:50:00",330276,1.202,157.4,4.104,61.01,0,0,867.0412,0,86.8,2.294,170,0.767,1.444,0,0,52.88,60.62,34,35.82
"2018-03-04 04:00:00",330277,1.004,150.3,4.259,61.65,0,0,866.9269,0,86.4,2.298,169,0.767,1.444,0,0,52.88,60.62,34,35.82
"2018-03-04 04:10:00",330278,1.211,160.7,4.23,63.23,0,0,866.803,0,86.5,2.296,170,0.767,1.454,0,0,52.83,60.62,33.99,35.82
"2018-03-04 04:20:00",330279,1.603,153.9,4.538,62.68,0,0,866.7662,0,86.8,2.293,169,0.767,1.453,0,0,52.88,60.62,34,35.82
"2018-03-04 04:30:00",330280,1.377,147.5,4.611,63.2,0,0,866.7065,0,86.6,2.295,170,0.773,1.457,0,0,52.83,60.62,33.99,35.82
"2018-03-04 04:40:00",330281,1.099,152.5,4.463,64.56,0,0,866.892,0,86.7,2.294,170,0.781,1.45,0,0,52.88,60.62,34,35.82
"2018-03-04 04:50:00",330282,1.226,153.3,4.36,66,0,0,866.9998,0,86.8,2.294,174,0.777,1.444,0,0,52.83,60.62,33.99,35.82
"2018-03-04 05:00:00",330283,1.167,156.7,4.511,67.02,0,0,866.9861,0,86.7,2.294,171,0.777,1.433,0,0,52.83,60.62,33.99,35.82
"2018-03-04 05:10:00",330284,1.065,154.8,4.571,67.61,0,0,866.9615,0,87,2.293,181,0.778,1.422,0,0,52.88,60.62,34,35.82
"2018-03-04 05:20:00",330285,1.143,160.5,4.46,69.42,0,0,867.0034,0,86.4,2.296,170,0.772,1.412,0.045497,0,52.83,60.62,33.99,35.82
"2018-03-04 05:30:00",330286,0.195,52.81,4.479,69.1,0,0,867.2308,0,86.6,2.295,172,0.771,1.405,0,0,52.83,60.62,33.99,35.82
"2018-03-04 05:40:00",330287,0.258,291.2,4.472,69.45,0,0,867.4395,0,86.6,2.295,172,0.734,1.401,0,0,52.88,60.62,34,35.82
"2018-03-04 05:50:00",330288,0.079,310.7,3.867,70.81,0,0,867.6565,0,86.5,2.303,170,0.7,1.389,0,0,52.83,60.62,33.99,35.82
"2018-03-04 06:00:00",330289,0.201,94.5,2.96,75.86,0,0,867.7576,0,86.8,2.298,176,0.692,1.382,0,0,52.83,60.62,33.99,35.82
"2018-03-04 06:10:00",330290,0.338,115,3.553,73.47,0,0,867.7513,0,86.4,2.301,170,0.697,1.382,0.1706008,0,52.88,60.62,34,35.82
"2018-03-04 06:20:00",330291,0.4,120.2,3.735,73.41,0.2752471,0,867.8693,0,86.3,2.3,171,0.706,1.391,1.353478,1.403,52.83,60.62,33.99,35.82
"2018-03-04 06:30:00",330292,0.758,140,3.996,73.18,3.063221,0,868.0041,0,86.6,2.297,170,0.719,1.396,3.552567,1.295,52.83,60.56,33.99,35.81
"2018-03-04 06:40:00",330293,0.915,148.8,3.852,74.14,6.653532,0,867.9894,0,86.6,2.298,170,0.729,1.404,5.319515,0.809,52.83,60.62,33.99,35.82
"2018-03-04 06:50:00",330294,1.199,152.7,3.87,75.69,10.93629,0,867.9586,0,86.9,2.294,170,0.741,1.416,7.617488,0.698,52.83,60.62,33.99,35.82
"2018-03-04 07:00:00",330295,1.274,154.4,4.183,75.63,18.38453,0,868.0099,0,86.8,2.294,169,0.765,1.425,12.90314,0.689,52.83,60.56,33.99,35.81
"2018-03-04 07:10:00",330296,1.198,152.8,4.566,74.47,77.52164,0,868.0259,0,86.6,2.295,176,0.763,1.427,29.49934,0.415,52.83,60.56,33.99,35.81
"2018-03-04 07:20:00",330297,0.836,143.7,4.88,72.97,101.0227,0,868.2703,0,86.6,2.293,170,0.777,1.425,35.88086,0.382,52.83,60.56,33.99,35.81
"2018-03-04 07:30:00",330298,1.346,151.3,5.29,70.31,77.28181,0,868.3541,0,86.5,2.292,169,0.789,1.391,40.30383,0.56,52.83,60.62,33.99,35.82
"2018-03-04 07:40:00",330299,1.045,145.8,5.644,68.36,144.0899,0,868.4908,0,86.6,2.29,169,0.828,1.349,47.9669,0.351,52.83,60.56,33.99,35.81
"2018-03-04 07:50:00",330300,0.895,144.7,5.867,67.29,186.2859,0,868.514,0,86.7,2.288,178,0.807,1.304,59.99291,0.33,52.83,60.56,33.99,35.81
"2018-03-04 08:00:00",330301,1.152,142.4,6.218,65.67,223.0372,0,868.5098,0,86.6,2.288,174,0.77,1.288,69.27876,0.319,52.83,60.56,33.99,35.81
"2018-03-04 08:10:00",330302,0.922,144.1,6.462,64.65,69.13416,0,868.5065,0,86.5,2.287,169,0.767,1.298,71.96946,1.092,52.83,60.56,33.99,35.81
"2018-03-04 08:20:00",330303,0.937,139.1,7,62.15,65.44978,0,868.4707,0,86.6,2.284,169,0.793,1.327,73.20482,1.148,52.83,60.56,33.99,35.81
"2018-03-04 08:30:00",330304,1.117,134.9,7.262,61.12,74.61559,0,868.4476,0,86.5,2.285,182,0.786,1.36,77.0649,1.08,52.83,60.56,33.99,35.81
"2018-03-04 08:40:00",330305,1.03,160.4,7.37,60.8,69.62517,0,868.502,0,86.7,2.282,173,0.748,1.343,76.8455,1.115,52.83,60.62,33.99,35.82
"2018-03-04 08:50:00",330306,0.869,155.5,7.498,60.43,78.21584,0,868.6161,0,87,2.278,185,0.73,1.304,74.98673,0.977,52.83,60.56,33.99,35.81
"2018-03-04 09:00:00",330307,0.812,167.2,7.535,60.72,68.08524,0,868.6705,0,86.9,2.279,185,0.743,1.274,69.8081,1.026,52.83,60.56,33.99,35.81
"2018-03-04 09:10:00",330308,1.373,144.4,7.694,60.61,73.14291,0,868.6703,0,86.6,2.282,189,0.764,1.249,66.95013,0.917,52.77,60.56,33.98,35.81
"2018-03-04 09:20:00",330309,1.505,142,7.761,60.67,77.12015,0,868.6746,0,86.5,2.283,173,0.763,1.251,64.44125,0.84,52.83,60.56,33.99,35.81
"2018-03-04 09:30:00",330310,1.072,142.7,7.737,60.72,93.13208,0,868.7273,0,86.5,2.283,170,0.763,1.25,61.58389,0.714,52.77,60.56,33.98,35.81
"2018-03-04 09:40:00",330311,0.9,143.6,7.862,60.09,84.99638,0,868.7483,0,86.3,2.284,173,0.76,1.243,61.62557,0.747,52.83,60.56,33.99,35.81
"2018-03-04 09:50:00",330312,1.27,142.9,7.834,59.98,77.24586,0,868.8347,0,86.3,2.284,174,0.76,1.243,63.70604,0.825,52.77,60.56,33.98,35.81
"2018-03-04 10:00:00",330313,1.206,145.1,7.95,59.58,81.29798,0,868.9779,0,86.2,2.284,177,0.759,1.244,66.15408,0.814,52.83,60.56,33.99,35.81
"2018-03-04 10:10:00",330314,0.698,144.6,7.824,59.63,86.89864,0,869.178,0,86.1,2.286,189,0.758,1.243,68.26106,0.786,52.83,60.56,33.99,35.81
"2018-03-04 10:20:00",330315,0.584,9.27,7.33,58.47,96.14661,0,869.4034,0,86.2,2.288,187,0.749,1.239,75.49531,0.787,52.83,60.56,33.99,35.81
"2018-03-04 10:30:00",330316,0.666,52,7.878,58.48,104.8247,0,869.4013,0,86.1,2.287,169,0.724,1.239,83.87778,0.803,52.77,60.56,33.98,35.81
"2018-03-04 10:40:00",330317,0.45,32.1,7.801,59.32,124.9753,0,869.5361,0,85.6,2.292,169,0.721,1.237,94.29903,0.766,52.77,60.56,33.98,35.81
"2018-03-04 10:50:00",330318,0.544,60.86,7.962,59.35,135.3434,0,869.6582,0,85.8,2.288,182,0.721,1.233,102.3783,0.788,52.77,60.56,33.98,35.81
"2018-03-04 11:00:00",330319,0.589,56.67,8.31,58.36,287.2529,0,869.7488,0,85.3,2.293,186,0.704,1.215,103.4053,0.399,52.77,60.62,33.98,35.82
"2018-03-04 11:10:00",330320,0.573,29.85,8.08,59.46,164.7616,0,869.8857,0,85.2,2.293,178,0.696,1.243,103.284,0.656,52.83,60.56,33.99,35.81
"2018-03-04 11:20:00",330321,0.581,58.97,8.32,58.97,126.626,0,869.7277,0,85.6,2.29,168,0.705,1.233,118.9007,0.943,52.83,60.56,33.99,35.81
"2018-03-04 11:30:00",330322,0.651,85.7,8.34,59.36,150.6597,0,869.6582,0,85.2,2.294,176,0.71,1.264,139.6712,0.935,52.77,60.56,33.98,35.81
"2018-03-04 11:40:00",330323,1.116,124.9,8.39,59.55,219.0506,0,869.6014,0,85,2.294,174,0.721,1.259,190.9324,0.898,52.83,60.56,33.99,35.81
"2018-03-04 11:50:00",330324,1.527,139.5,8.55,59.3,534.3539,0,869.4834,0,84.6,2.299,182,0.721,1.246,228.7672,0.468,52.83,60.56,33.99,35.81
"2018-03-04 12:00:00",330325,0.828,153,8.86,58.43,727.3635,0,869.2854,0,84.7,2.294,182,0.72,1.237,302.524,0.419,52.83,60.56,33.99,35.81
"2018-03-04 12:10:00",330326,0.996,151.3,9.63,55.06,906.0389,0,869.1407,0,84.4,2.295,190,0.712,1.295,408.4791,0.45,52.83,60.56,33.99,35.81
"2018-03-04 12:20:00",330327,1.492,148.4,9.91,54.62,896.947,0,868.9119,0,84.1,2.3,185,0.685,1.216,421.4112,0.467,52.83,60.56,33.99,35.81
"2018-03-04 12:30:00",330328,1.409,138.6,9.12,58.22,580.6984,0,868.7762,0,84.2,2.302,172,0.678,1.202,272.1989,0.463,52.77,60.56,33.98,35.81
"2018-03-04 12:40:00",330329,1.228,137.9,8.3,61.61,419.4258,0,868.4728,0,84.4,2.301,179,0.69,1.238,196.5244,0.464,52.83,60.56,33.99,35.81
"2018-03-04 12:50:00",330330,0.872,146.8,8.89,59.62,643.1889,0,868.2312,0,83.9,2.304,181,0.607,1.235,306.2332,0.473,52.83,60.56,33.99,35.81
"2018-03-04 13:00:00",330331,0.627,344.1,9.3,58.11,766.3856,0,868.1908,0,83.7,2.304,185,0.562,1.225,361.2465,0.47,52.77,60.56,33.98,35.81
"2018-03-04 13:10:00",330332,0.726,347,8.3,61.43,328.2315,0,868.3339,0,84,2.305,186,0.559,1.203,140.8205,0.422,52.83,60.56,33.99,35.81
"2018-03-04 13:20:00",330333,0.44,290.6,8.49,61.46,396.3541,0,868.315,0,84.6,2.297,188,0.552,1.099,181.4849,0.449,52.83,60.56,33.99,35.81
"2018-03-04 13:30:00",330334,0.476,54.12,9.33,59.09,692.715,0,868.0729,0,83.8,2.301,185,0.547,1.134,313.811,0.452,52.77,60.56,33.98,35.81
"2018-03-04 13:40:00",330335,0.647,137.8,9.57,57.26,548.6328,0,868.0665,0,84.1,2.3,192,0.526,1.18,231.9205,0.41,52.77,60.56,33.98,35.81
"2018-03-04 13:50:00",330336,0.51,28.27,8.89,60.97,303.7989,0,868.0729,0,83.8,2.306,191,0.546,1.082,126.9344,0.416,52.77,60.56,33.98,35.81
"2018-03-04 14:00:00",330337,0.504,313.4,8.47,63.91,358.9767,0,868.1634,0,83.7,2.308,178,0.532,1.046,140.2533,0.391,52.77,60.56,33.98,35.81
"2018-03-04 14:10:00",330338,0.26,224.6,8.69,63.58,391.8272,0,868.1824,0,83.3,2.309,189,0.535,1.053,124.8246,0.329,52.83,60.56,33.99,35.81
"2018-03-04 14:20:00",330339,0.107,267.9,8.92,61.26,212.6617,0,868.0792,0,83.5,2.308,188,0.542,1.06,80.17297,0.389,52.83,60.56,33.99,35.81
"2018-03-04 14:30:00",330340,0.378,2.222,8.52,63.94,120.6139,0,868.1486,0,84.2,2.302,194,0.545,1.066,57.12267,0.474,52.83,60.56,33.99,35.81
"2018-03-04 14:40:00",330341,0.369,293.4,8.18,65.24,87.66637,0,868.3255,0,84.2,2.305,192,0.548,1.094,39.70079,0.452,52.94,60.56,34.02,35.81
"2018-03-04 14:50:00",330342,0.474,20.28,7.905,66.76,87.92579,0,868.3255,0,83.9,2.308,193,0.547,1.085,37.54153,0.427,53,60.62,34.03,35.82
"2018-03-04 15:00:00",330343,0.47,149.7,7.893,66.52,84.30725,0,868.2413,0,84.1,2.307,192,0.549,1.066,37.16272,0.441,53.05,60.62,34.04,35.82
"2018-03-04 15:10:00",330344,0.506,173.7,7.876,67.1,73.27871,0,868.2286,0,83.9,2.307,191,0.594,1.078,34.29502,0.468,53.33,60.68,34.11,35.83
"2018-03-04 15:20:00",330345,0.495,169.7,8.18,65.56,69.36964,0,868.2328,0,83.7,2.309,185,0.627,1.105,32.6586,0.471,53.67,60.8,34.19,35.86
"2018-03-04 15:30:00",330346,0.42,204.9,8,65.89,62.19318,0,868.144,0,83.3,2.313,187,0.639,1.15,28.95449,0.466,53.73,60.86,34.21,35.88
"2018-03-04 15:40:00",330347,0.181,157.7,8.23,64.71,55.3596,0,868.0836,0,83,2.315,189,0.654,1.172,26.01613,0.47,53.9,60.92,34.25,35.89
"2018-03-04 15:50:00",330348,0.157,80.2,8.34,64.02,47.91014,0,868.232,0,83.3,2.311,176,0.677,1.196,22.62363,0.472,54.07,61.04,34.29,35.92
"2018-03-04 16:00:00",330349,0.479,104,8.52,63.79,46.40545,0,868.1741,0,83.2,2.313,186,0.7,1.22,21.99671,0.474,54.12,61.1,34.3,35.93
"2018-03-04 16:10:00",330350,0.192,85.5,8.45,64.84,38.92452,0,868.2266,0,83.2,2.314,183,0.689,1.229,18.40911,0.473,54.24,61.16,34.33,35.94
"2018-03-04 16:20:00",330351,0.151,70.19,8.11,66.42,37.38849,0,868.3309,0,83.2,2.314,175,0.662,1.226,17.42796,0.466,54.35,61.28,34.36,35.97
"2018-03-04 16:30:00",330352,0.089,77.47,8.06,66.44,31.96099,0,868.1727,0,83.1,2.315,176,0.661,1.196,15.12024,0.473,54.41,61.4,34.37,36
"2018-03-04 16:40:00",330353,0.157,106.7,8.1,66.24,30.49899,0,868.1605,0,83.1,2.315,170,0.671,1.191,14.52909,0.476,54.46,61.52,34.38,36.02
"2018-03-04 16:50:00",330354,0.064,78.73,8.12,66.25,26.78095,0,868.1606,0,83,2.315,174,0.675,1.178,12.85412,0.48,54.52,61.58,34.4,36.04
"2018-03-04 17:00:00",330355,0.149,334.6,8.19,66.91,23.59349,0,868.3923,0,83.4,2.313,170,0.676,1.17,11.40273,0.483,54.58,61.7,34.41,36.06
"2018-03-04 17:10:00",330356,0.308,304.7,7.47,72.56,19.34879,0,868.4176,0,82.9,2.32,170,0.677,1.187,9.24269,0.478,54.63,61.76,34.42,36.08
"2018-03-04 17:20:00",330357,0.393,321,7.244,74.27,15.17482,0,868.4176,0,83.5,2.315,187,0.677,1.194,7.43508,0.49,54.69,61.82,34.44,36.09
"2018-03-04 17:30:00",330358,0.003,305.5,6.89,74.11,9.224376,0,868.3797,0,83.2,2.321,180,0.677,1.195,4.805138,0.522,54.69,61.88,34.44,36.11
"2018-03-04 17:40:00",330359,0.149,197.3,6.328,77.67,4.346893,0,868.3102,0,83.2,2.322,173,0.677,1.195,2.709522,0.645,54.75,61.94,34.45,36.12
"2018-03-04 17:50:00",330360,0.13,166.3,5.762,77.64,0.3340741,0,868.4176,0,83,2.328,179,0.683,1.195,0.5002194,0.394,54.75,61.94,34.45,36.12
"2018-03-04 18:00:00",330361,0.069,175.6,5.079,79.51,0,0,868.5692,0,83,2.329,177,0.71,1.197,0,0,54.69,62,34.44,36.13
"2018-03-04 18:10:00",330362,0.147,173.7,4.797,79.68,0,0,868.525,0,83.1,2.331,176,0.72,1.215,0,0,54.75,62.06,34.45,36.15
"2018-03-04 18:20:00",330363,0.445,172,4.366,83.5,0,0,868.5102,0,83.2,2.33,172,0.741,1.254,0,0,54.75,62.06,34.45,36.15
"2018-03-04 18:30:00",330364,0.391,171,4.191,85.4,0,0,868.6534,0,83.4,2.328,192,0.767,1.282,0,0,54.75,62.12,34.45,36.16
"2018-03-04 18:40:00",330365,0.296,187,4.368,86.4,0,0,868.6703,0,83,2.331,172,0.785,1.308,0.03032402,0,54.8,62.12,34.46,36.16
"2018-03-04 18:50:00",330366,0.163,132.4,4.66,86.7,0,0,868.6155,0,82.9,2.331,184,0.765,1.324,0.1516292,0,54.75,62.12,34.45,36.16
"2018-03-04 19:00:00",330367,0.348,180.9,4.378,84.1,0,0,868.7514,0,83,2.331,172,0.72,1.335,0.00758164,0,54.75,62.12,34.45,36.16
"2018-03-04 19:10:00",330368,0.324,186.2,4.485,82.8,0,0,868.9554,0,83.2,2.33,177,0.679,1.342,0,0,54.75,62.18,34.45,36.17
"2018-03-04 19:20:00",330369,0.14,186.5,4.427,84,0,0,868.9941,0,83,2.331,172,0.669,1.364,0,0,54.75,62.18,34.45,36.17
"2018-03-04 19:30:00",330370,0.184,185.2,4.351,84.1,0,0,869.0491,0,82.9,2.334,170,0.663,1.369,0.01137251,0,54.75,62.18,34.45,36.17
"2018-03-04 19:40:00",330371,0.524,188,4.081,84.1,0,0,869.0025,0,82.6,2.336,172,0.668,1.369,0.2047052,0,54.75,62.18,34.45,36.17
"2018-03-04 19:50:00",330372,0.318,183.7,4.113,80.4,0,0,868.7904,0,83,2.333,171,0.678,1.369,0.07960757,0,54.69,62.18,34.44,36.17
"2018-03-04 20:00:00",330373,0.508,185.3,4.06,80.7,0,0,868.7327,0,83.3,2.328,171,0.68,1.369,0.1213068,0,54.75,62.18,34.45,36.17
"2018-03-04 20:10:00",330374,0.402,180.2,4.622,73.09,0,0,868.5096,0,83.1,2.327,174,0.683,1.369,0.2994761,0,54.75,62.18,34.45,36.17
"2018-03-04 20:20:00",330375,0.219,192.4,6.271,60,0,0,868.4149,0,82.9,2.322,171,0.679,1.369,1.607315,0,54.69,62.18,34.44,36.17
"2018-03-04 20:30:00",330376,0.009,192.7,6.685,56.97,0,0,868.2568,0,82.8,2.325,180,0.679,1.369,0.6785597,0,54.69,62.18,34.44,36.17
"2018-03-04 20:40:00",330377,0.185,180.6,5.635,61.84,0,0,868.1389,0,83.3,2.324,175,0.68,1.369,0.01516335,0,54.63,62.18,34.42,36.17
"2018-03-04 20:50:00",330378,0.366,182.7,5.163,63.27,0,0,868.004,0,83.4,2.324,176,0.679,1.369,0.01137251,0,54.63,62.18,34.42,36.17
"2018-03-04 21:00:00",330379,0.455,180.7,4.814,64.02,0,0,868.004,0,83,2.331,171,0.679,1.367,0.01895418,0,54.69,62.18,34.44,36.17
"2018-03-04 21:10:00",330380,0.566,189.6,4.724,63.3,0,0,868.004,0,82.8,2.332,173,0.679,1.367,0.003790837,0,54.63,62.18,34.42,36.17
"2018-03-04 21:20:00",330381,0.433,188.8,4.657,63.36,0,0,867.9913,0,83,2.329,170,0.679,1.369,0,0,54.63,62.18,34.42,36.17
"2018-03-04 21:30:00",330382,0.308,204.4,5.548,57.98,0,0,868.004,0,82.7,2.331,170,0.679,1.367,0.3828745,0,54.63,62.12,34.42,36.16
"2018-03-04 21:40:00",330383,0.172,185.3,4.804,61.11,0,0,868.004,0,82.9,2.333,172,0.679,1.361,0,0,54.63,62.12,34.42,36.16
"2018-03-04 21:50:00",330384,0.304,181.9,4.533,60.61,0,0,867.9577,0,83,2.331,174,0.683,1.363,0,0,54.58,62.12,34.41,36.16
"2018-03-04 22:00:00",330385,0.273,155.3,4.763,58.93,0,0,867.7554,0,84,2.319,174,0.686,1.361,0.08719194,0,54.58,62.12,34.41,36.16
"2018-03-04 22:10:00",330386,0.448,153.9,5.416,56.06,0,0,867.4562,0,82.8,2.33,171,0.691,1.369,0.3146544,0,54.58,62.12,34.41,36.16
"2018-03-04 22:20:00",330387,0.44,176,4.977,57.89,0,0,866.959,0,82.8,2.331,170,0.689,1.357,0.04928271,0,54.58,62.12,34.41,36.16
"2018-03-04 22:30:00",330388,0.56,184,5.175,55.32,0,0,866.6661,0,83.4,2.322,175,0.685,1.359,0.1781724,0,54.58,62.12,34.41,36.16
"2018-03-04 22:40:00",330389,0.463,264,7.304,39.57,0,0,866.6534,0,82.7,2.32,189,0.685,1.362,0.9515219,0,54.52,62.12,34.4,36.16
"2018-03-04 22:50:00",330390,0.617,293.6,6.838,48.94,0,0,866.6324,0,82.9,2.326,171,0.691,1.381,0,0,54.46,62.12,34.38,36.16
"2018-03-04 23:00:00",330391,0.44,258.3,5.016,63.17,0,0,866.7419,0,82.6,2.336,170,0.689,1.378,0,0,54.46,62.06,34.38,36.15
"2018-03-04 23:10:00",330392,0.046,247.9,4.201,70.76,0,0,866.7419,0,82.6,2.336,170,0.696,1.383,0,0,54.46,62.06,34.38,36.15
"2018-03-04 23:20:00",330393,0.174,159.5,3.34,68.02,0,0,866.5798,0,82.9,2.339,181,0.699,1.373,0,0,54.46,62.06,34.38,36.15
"2018-03-04 23:30:00",330394,0.559,324.4,3.659,70.98,0,0,866.5039,0,83.2,2.328,180,0.702,1.327,0.193353,0,54.46,62.06,34.38,36.15
"2018-03-04 23:40:00",330395,0.327,165.1,4.532,67.18,0,0,866.7546,0,82.6,2.339,171,0.713,1.365,0.219897,0,54.41,62.06,34.37,36.15
"2018-03-04 23:50:00",330396,0.118,328.1,3.67,73.33,0,0,867.195,0,82.8,2.334,174,0.719,1.346,0,0,54.46,62.06,34.38,36.15
